EN

Hourly Weather Lagiewniki

Today, 24 July, Saturday

Time Temperature Precipitation Wind Pressure Humidity
00:00 +18°C° 0 mm 1 mps 744 mmHg 80%
01:00 +18°C° 0 mm 1 mps 744 mmHg 81%
02:00 +16°C° 0 mm 1 mps 744 mmHg 83%
03:00 +16°C° 0 mm 1 mps 744 mmHg 83%
04:00 +16°C° 0 mm 1 mps 744 mmHg 84%
05:00 +16°C° 0 mm 1 mps 744 mmHg 85%
06:00 +16°C° 0 mm 0 mps 744 mmHg 79%
07:00 +18°C° 0 mm 0 mps 744 mmHg 74%
08:00 +19°C° 0 mm 0 mps 744 mmHg 69%
09:00 +21°C° 0 mm 0 mps 744 mmHg 65%
10:00 +24°C° 0 mm 1 mps 744 mmHg 60%
11:00 +25°C° 0 mm 1 mps 744 mmHg 56%
12:00 +25°C° 0.1 mm 1 mps 744 mmHg 54%
13:00 +26°C° 0.1 mm 1 mps 744 mmHg 51%
14:00 +26°C° 0.1 mm 1 mps 744 mmHg 49%
15:00 +26°C° 0 mm 1 mps 744 mmHg 50%
16:00 +26°C° 0 mm 1 mps 744 mmHg 51%
17:00 +26°C° 0 mm 2 mps 744 mmHg 53%
18:00 +25°C° 0 mm 2 mps 744 mmHg 57%
19:00 +24°C° 0 mm 2 mps 744 mmHg 61%
20:00 +21°C° 0 mm 2 mps 743 mmHg 65%
21:00 +21°C° 0 mm 2 mps 744 mmHg 65%
22:00 +21°C° 0 mm 2 mps 744 mmHg 65%
23:00 +20°C° 0 mm 3 mps 744 mmHg 65%

Tomorrow, 25 July, Sunday

Time Temperature Precipitation Wind Pressure Humidity
00:00 +20°C° 0 mm 3 mps 744 mmHg 66%
01:00 +20°C° 0 mm 3 mps 744 mmHg 67%
02:00 +20°C° 0 mm 3 mps 743 mmHg 68%
03:00 +20°C° 0 mm 3 mps 743 mmHg 68%
04:00 +19°C° 0 mm 3 mps 744 mmHg 68%
05:00 +19°C° 0 mm 3 mps 744 mmHg 67%
06:00 +20°C° 0 mm 4 mps 744 mmHg 66%
07:00 +21°C° 0 mm 4 mps 744 mmHg 65%
08:00 +22°C° 0 mm 5 mps 744 mmHg 63%
09:00 +23°C° 0 mm 5 mps 744 mmHg 62%
10:00 +25°C° 0 mm 5 mps 744 mmHg 60%
11:00 +25°C° 0 mm 5 mps 744 mmHg 58%
12:00 +27°C° 0 mm 5 mps 744 mmHg 53%
13:00 +28°C° 0 mm 5 mps 744 mmHg 48%
14:00 +29°C° 0 mm 5 mps 744 mmHg 44%
15:00 +29°C° 0 mm 5 mps 743 mmHg 44%
16:00 +29°C° 0 mm 5 mps 743 mmHg 45%
17:00 +29°C° 0 mm 5 mps 743 mmHg 46%
18:00 +28°C° 0 mm 5 mps 743 mmHg 51%
19:00 +26°C° 0 mm 4 mps 743 mmHg 56%
20:00 +25°C° 0 mm 4 mps 743 mmHg 61%
21:00 +23°C° 0 mm 4 mps 743 mmHg 62%
22:00 +23°C° 0 mm 5 mps 743 mmHg 62%
23:00 +22°C° 0 mm 5 mps 743 mmHg 63%

Day after tomorrow, 26 July, Monday

Time Temperature Precipitation Wind Pressure Humidity
00:00 +22°C° 0 mm 5 mps 743 mmHg 65%
01:00 +22°C° 0 mm 5 mps 743 mmHg 66%
02:00 +22°C° 0 mm 5 mps 743 mmHg 68%
03:00 +21°C° 0 mm 5 mps 743 mmHg 70%
04:00 +21°C° 0 mm 5 mps 743 mmHg 71%
05:00 +20°C° 0 mm 5 mps 742 mmHg 73%
06:00 +21°C° 0 mm 5 mps 742 mmHg 70%
07:00 +22°C° 0 mm 6 mps 742 mmHg 67%
08:00 +23°C° 0 mm 6 mps 742 mmHg 64%
09:00 +26°C° 0 mm 6 mps 742 mmHg 59%
10:00 +27°C° 0 mm 6 mps 742 mmHg 53%
11:00 +29°C° 0 mm 6 mps 743 mmHg 47%
12:00 +30°C° 0 mm 6 mps 742 mmHg 46%
13:00 +30°C° 0 mm 6 mps 742 mmHg 45%
14:00 +32°C° 0 mm 6 mps 742 mmHg 44%
15:00 +32°C° 0 mm 6 mps 742 mmHg 45%
16:00 +32°C° 0 mm 6 mps 742 mmHg 46%
17:00 +32°C° 0 mm 6 mps 742 mmHg 47%
18:00 +29°C° 0.3 mm 6 mps 742 mmHg 53%
19:00 +28°C° 0.3 mm 6 mps 742 mmHg 60%
20:00 +26°C° 0.3 mm 5 mps 742 mmHg 66%
21:00 +25°C° 2.7 mm 5 mps 742 mmHg 76%
22:00 +22°C° 2.7 mm 4 mps 742 mmHg 85%
23:00 +21°C° 2.7 mm 3 mps 742 mmHg 94%

27 July, Tuesday

Time Temperature Precipitation Wind Pressure Humidity
00:00 +20°C° 0.1 mm 3 mps 742 mmHg 94%
01:00 +20°C° 0.1 mm 3 mps 742 mmHg 93%
02:00 +20°C° 0.1 mm 2 mps 741 mmHg 93%
03:00 +20°C° 0.2 mm 2 mps 742 mmHg 93%
04:00 +19°C° 0.2 mm 2 mps 742 mmHg 93%
05:00 +19°C° 0.2 mm 2 mps 742 mmHg 92%
06:00 +20°C° 0.4 mm 2 mps 742 mmHg 89%
07:00 +22°C° 0.4 mm 1 mps 742 mmHg 85%
08:00 +23°C° 0.4 mm 1 mps 742 mmHg 81%
09:00 +24°C° 0 mm 1 mps 742 mmHg 76%
10:00 +26°C° 0 mm 2 mps 742 mmHg 71%
11:00 +27°C° 0 mm 2 mps 742 mmHg 65%
12:00 +28°C° 0 mm 2 mps 742 mmHg 61%
13:00 +29°C° 0 mm 2 mps 742 mmHg 57%
14:00 +31°C° 0 mm 2 mps 742 mmHg 52%
15:00 +31°C° 0 mm 2 mps 742 mmHg 52%
16:00 +31°C° 0 mm 2 mps 742 mmHg 52%
17:00 +31°C° 0 mm 2 mps 741 mmHg 51%
18:00 +29°C° 0.2 mm 2 mps 741 mmHg 60%
19:00 +27°C° 0.2 mm 2 mps 741 mmHg 68%
20:00 +26°C° 0.2 mm 2 mps 740 mmHg 77%
21:00 +24°C° 0.7 mm 2 mps 740 mmHg 82%
22:00 +23°C° 0.7 mm 2 mps 740 mmHg 87%
23:00 +21°C° 0.7 mm 2 mps 740 mmHg 92%

28 July, Wednesday

Time Temperature Precipitation Wind Pressure Humidity
00:00 +21°C° 1.5 mm 2 mps 740 mmHg 93%
01:00 +20°C° 1.5 mm 2 mps 740 mmHg 94%
02:00 +20°C° 1.5 mm 2 mps 740 mmHg 94%
03:00 +19°C° 0 mm 2 mps 740 mmHg 94%
04:00 +18°C° 0 mm 3 mps 740 mmHg 94%
05:00 +18°C° 0 mm 3 mps 740 mmHg 94%
06:00 +19°C° 0 mm 3 mps 740 mmHg 92%
07:00 +20°C° 0 mm 4 mps 740 mmHg 90%
08:00 +21°C° 0 mm 4 mps 740 mmHg 88%
09:00 +22°C° 0 mm 4 mps 740 mmHg 82%
10:00 +23°C° 0 mm 4 mps 740 mmHg 77%
11:00 +26°C° 0 mm 4 mps 741 mmHg 72%
12:00 +25°C° 0.6 mm 5 mps 741 mmHg 75%
13:00 +23°C° 0.6 mm 5 mps 741 mmHg 78%
14:00 +23°C° 0.6 mm 5 mps 741 mmHg 81%
15:00 +23°C° 0.4 mm 5 mps 741 mmHg 78%
16:00 +23°C° 0.4 mm 5 mps 741 mmHg 76%
17:00 +23°C° 0.4 mm 5 mps 741 mmHg 74%
18:00 +23°C° 0.1 mm 5 mps 741 mmHg 77%
19:00 +22°C° 0.1 mm 4 mps 741 mmHg 80%
20:00 +21°C° 0.1 mm 3 mps 742 mmHg 83%
21:00 +20°C° 0.1 mm 3 mps 742 mmHg 85%
22:00 +20°C° 0.1 mm 3 mps 742 mmHg 88%
23:00 +19°C° 0.1 mm 3 mps 742 mmHg 91%

29 July, Thursday

Time Temperature Precipitation Wind Pressure Humidity
00:00 +18°C° 0 mm 3 mps 742 mmHg 91%
01:00 +18°C° 0 mm 3 mps 742 mmHg 91%
02:00 +18°C° 0 mm 3 mps 743 mmHg 92%
03:00 +17°C° 0 mm 3 mps 743 mmHg 91%
04:00 +17°C° 0 mm 3 mps 743 mmHg 90%
05:00 +16°C° 0 mm 3 mps 743 mmHg 90%
06:00 +18°C° 0 mm 3 mps 743 mmHg 83%
07:00 +20°C° 0 mm 3 mps 743 mmHg 77%
08:00 +21°C° 0 mm 3 mps 744 mmHg 71%
09:00 +24°C° 0 mm 3 mps 744 mmHg 65%
10:00 +25°C° 0 mm 3 mps 744 mmHg 58%
11:00 +27°C° 0 mm 3 mps 744 mmHg 52%
12:00 +27°C° 0 mm 3 mps 744 mmHg 49%
13:00 +28°C° 0 mm 3 mps 744 mmHg 46%
14:00 +29°C° 0 mm 3 mps 744 mmHg 43%
15:00 +28°C° 0 mm 2 mps 744 mmHg 47%
16:00 +27°C° 0 mm 2 mps 744 mmHg 51%
17:00 +27°C° 0 mm 1 mps 744 mmHg 55%
18:00 +26°C° 0 mm 1 mps 743 mmHg 57%
19:00 +25°C° 0 mm 1 mps 743 mmHg 59%
20:00 +24°C° 0 mm 1 mps 743 mmHg 61%
21:00 +23°C° 0 mm 1 mps 743 mmHg 62%
22:00 +23°C° 0 mm 2 mps 743 mmHg 63%
23:00 +21°C° 0 mm 2 mps 743 mmHg 63%
Show more